GW2442 Weather Reports


time (UTC)temp
C
wind
direction
speed
KPH
gust
KPH
rain 1hr
cm
rain 24hr
cm
rain mn
cm
humidity
%
barometer
mb
20260506092726 16 122 0.0 3.2 0.00 0.00 0.00 74 1006.0
20260506092224 16 84 1.6 1.6 0.00 0.00 0.00 73 1006.1
20260506091721 16 96 0.0 3.2 0.00 0.00 0.00 73 1005.9
20260506091218 16 125 0.0 3.2 0.00 0.00 0.00 73 1006.1
20260506090716 17 116 1.6 3.2 0.00 0.00 0.00 73 1006.1
20260506090212 17 158 1.6 1.6 0.00 0.00 0.00 72 1006.2
20260506085710 17 94 1.6 3.2 0.00 0.00 0.00 72 1006.3
20260506085205 17 172 1.6 4.8 0.00 0.00 0.00 72 1006.2
20260506084702 17 73 0.0 1.6 0.00 0.00 0.00 71 1006.4
20260506084159 17 113 1.6 3.2 0.00 0.00 0.00 71 1006.4
20260506083655 16 118 1.6 3.2 0.00 0.00 0.00 71 1006.4
20260506083154 16 179 0.0 4.8 0.00 0.00 0.00 71 1006.4
20260506082650 16 160 1.6 1.6 0.00 0.00 0.00 71 1006.4
20260506082145 16 140 1.6 3.2 0.00 0.00 0.00 71 1006.4
20260506081643 16 122 0.0 1.6 0.00 0.00 0.00 72 1006.3
20260506081141 16 110 0.0 1.6 0.00 0.00 0.00 72 1006.4
20260506080638 16 107 1.6 3.2 0.00 0.00 0.00 71 1006.2
20260506080135 16 123 0.0 1.6 0.00 0.00 0.00 71 1006.3
20260506073119 16 169 1.6 1.6 0.00 0.00 0.00 69 1006.6
20260506072615 16 118 0.0 1.6 0.00 0.00 0.00 69 1006.7
20260506072113 16 151 0.0 1.6 0.00 0.00 0.00 69 1006.7
20260506071611 16 72 1.6 1.6 0.00 0.00 0.00 68 1006.5
20260506071108 16 104 1.6 1.6 0.00 0.00 0.00 68 1006.4
20260506070605 17 107 0.0 3.2 0.00 0.00 0.00 67 1006.7
20260506062039 17 156 1.6 8.0 0.00 0.00 0.00 63 1007.0
20260506061535 17 97 0.0 3.2 0.00 0.00 0.00 63 1007.2
20260506061033 17 123 0.0 1.6 0.00 0.00 0.00 65 1007.2
20260506060531 17 50 1.6 3.2 0.00 0.00 0.00 65 1007.3
20260506051000 18 108 1.6 1.6 0.00 0.00 0.00 61 1007.2
20260506050458 18 99 0.0 3.2 0.00 0.00 0.00 61 1007.6
20260506044948 18 95 0.0 1.6 0.00 0.00 0.00 60 1007.5
20260506044446 18 128 0.0 4.8 0.00 0.00 0.00 59 1007.4
20260506043943 18 111 1.6 3.2 0.00 0.00 0.00 59 1007.5
20260506043440 18 39 1.6 3.2 0.00 0.00 0.00 59 1007.2
20260506042938 18 97 1.6 3.2 0.00 0.00 0.00 58 1007.5
20260506042437 18 134 0.0 9.7 0.00 0.00 0.00 57 1007.4
20260506041935 18 289 3.2 4.8 0.00 0.00 0.00 57 1007.6
20260506041432 18 130 1.6 4.8 0.00 0.00 0.00 57 1007.5
20260506040929 18 42 3.2 4.8 0.00 0.00 0.00 57 1007.5
20260506040427 18 59 3.2 3.2 0.00 0.00 0.00 56 1007.3
20260506035922 18 56 1.6 1.6 0.00 0.03 0.03 56 1007.3
20260506035420 19 102 0.0 1.6 0.00 0.03 0.03 56 1007.3
20260506034917 19 156 1.6 1.6 0.00 0.03 0.03 55 1007.6
20260506034414 19 130 1.6 1.6 0.00 0.03 0.03 54 1007.6
20260506033911 19 112 1.6 3.2 0.00 0.03 0.03 54 1007.2
20260506033408 19 139 1.6 3.2 0.00 0.03 0.03 53 1007.4
20260506032905 20 120 1.6 1.6 0.00 0.03 0.03 54 1007.4
20260506032402 20 157 3.2 8.0 0.00 0.03 0.03 52 1007.2
20260506031858 20 115 1.6 4.8 0.00 0.03 0.03 53 1007.4
20260506031356 20 120 0.0 4.8 0.00 0.03 0.03 52 1007.3
20260506030854 20 142 3.2 3.2 0.00 0.03 0.03 53 1007.4
20260506030352 20 95 0.0 11.3 0.00 0.03 0.03 52 1007.3
20260506025848 20 149 0.0 3.2 0.00 0.03 0.03 52 1007.4
20260506025344 20 103 1.6 3.2 0.00 0.03 0.03 52 1007.4
20260506024842 20 138 0.0 4.8 0.00 0.03 0.03 51 1007.4
20260506024338 20 175 1.6 3.2 0.00 0.03 0.03 51 1007.4
20260506023835 20 145 1.6 1.6 0.00 0.03 0.03 51 1007.5
20260506023331 20 125 0.0 1.6 0.00 0.03 0.03 50 1007.4
20260506022828 20 133 3.2 11.3 0.00 0.03 0.03 50 1007.4
20260506022326 20 117 3.2 3.2 0.00 0.03 0.03 49 1007.4
20260506021824 21 140 1.6 3.2 0.00 0.03 0.03 48 1007.3
20260506021321 21 117 1.6 4.8 0.00 0.03 0.03 47 1007.6
20260506020817 21 145 1.6 3.2 0.00 0.03 0.03 47 1007.3
20260506020315 21 128 1.6 3.2 0.00 0.03 0.03 47 1007.2
20260506015813 21 113 0.0 4.8 0.00 0.03 0.03 46 1007.3
20260506015310 21 179 1.6 3.2 0.00 0.03 0.03 46 1007.2
20260506014806 21 114 1.6 4.8 0.00 0.03 0.03 45 1007.0
20260506014303 21 91 1.6 4.8 0.00 0.03 0.03 46 1007.0
20260506013800 21 122 1.6 8.0 0.00 0.03 0.03 46 1006.8
20260506013257 21 136 0.0 1.6 0.00 0.03 0.03 46 1006.9
20260506012754 21 129 0.0 3.2 0.00 0.03 0.03 46 1006.9
20260506012251 21 105 0.0 3.2 0.00 0.03 0.03 46 1006.9
20260506011748 21 42 1.6 4.8 0.00 0.03 0.03 46 1006.6
20260506011244 21 154 1.6 3.2 0.00 0.03 0.03 46 1006.5
20260506010743 21 133 1.6 9.7 0.00 0.03 0.03 46 1006.8
20260506010239 21 141 1.6 3.2 0.00 0.03 0.03 46 1006.6
20260506005737 21 181 1.6 3.2 0.00 0.03 0.03 45 1006.7
20260506005233 21 172 4.8 8.0 0.00 0.03 0.03 44 1006.6
20260506004729 21 182 1.6 4.8 0.00 0.03 0.03 46 1006.6
20260506004227 22 101 1.6 3.2 0.00 0.03 0.03 44 1006.5
20260506003723 22 110 0.0 3.2 0.00 0.03 0.03 44 1006.4
20260506003220 22 186 3.2 4.8 0.00 0.03 0.03 43 1006.5
20260506002715 22 318 1.6 4.8 0.00 0.03 0.03 43 1006.4
20260506002212 22 77 4.8 8.0 0.00 0.03 0.03 42 1006.3
20260506001708 22 13 3.2 9.7 0.00 0.03 0.03 42 1006.2
20260506001205 22 97 1.6 11.3 0.00 0.03 0.03 43 1006.3
20260506000702 22 144 0.0 8.0 0.00 0.03 0.03 43 1006.2
20260506000200 22 93 1.6 3.2 0.00 0.03 0.03 43 1006.2
20260505235657 22 120 0.0 4.8 0.00 0.03 0.03 42 1006.1
20260505235155 22 211 3.2 8.0 0.00 0.03 0.03 43 1006.1
20260505234651 23 167 1.6 8.0 0.00 0.03 0.03 42 1006.1
20260505234149 23 296 3.2 4.8 0.00 0.03 0.03 43 1005.9
20260505233645 22 103 0.0 4.8 0.00 0.03 0.03 43 1006.1
20260505233143 23 66 1.6 1.6 0.00 0.03 0.03 43 1006.0
20260505232640 23 168 1.6 9.7 0.00 0.03 0.03 43 1006.2
20260505232138 23 149 0.0 8.0 0.00 0.03 0.03 43 1006.0
20260505231634 23 115 3.2 3.2 0.00 0.03 0.03 43 1006.1
20260505231133 23 114 0.0 3.2 0.00 0.03 0.03 43 1005.7
20260505230631 23 147 0.0 3.2 0.00 0.03 0.03 42 1005.9
20260505230127 23 136 0.0 1.6 0.00 0.03 0.03 42 1005.8
20260505225623 23 114 0.0 3.2 0.00 0.03 0.03 42 1005.6
20260505225120 23 156 3.2 8.0 0.00 0.03 0.03 41 1005.8
20260505224616 23 23 6.4 11.3 0.00 0.03 0.03 42 1005.6
20260505224114 23 114 1.6 4.8 0.00 0.03 0.03 41 1005.7
20260505223611 23 159 3.2 4.8 0.00 0.03 0.03 40 1005.7
20260505223107 23 174 1.6 9.7 0.00 0.03 0.03 41 1005.7
20260505222604 23 150 1.6 4.8 0.00 0.03 0.03 40 1005.6
20260505222100 23 116 3.2 8.0 0.00 0.03 0.03 40 1005.5
20260505221557 24 99 0.0 1.6 0.00 0.03 0.03 39 1005.6
20260505221053 24 209 3.2 8.0 0.00 0.03 0.03 39 1005.5
20260505220551 24 189 4.8 9.7 0.00 0.03 0.03 38 1005.6
20260505220048 24 122 6.4 8.0 0.00 0.03 0.03 38 1005.4
20260505215546 24 179 1.6 4.8 0.00 0.03 0.03 38 1005.4
20260505215044 24 32 4.8 12.9 0.00 0.03 0.03 38 1005.4
20260505214542 24 133 0.0 8.0 0.00 0.03 0.03 39 1005.3
20260505214038 25 157 1.6 9.7 0.00 0.03 0.03 38 1005.3
20260505213536 25 78 3.2 11.3 0.00 0.03 0.03 38 1005.2
20260505213032 25 47 3.2 4.8 0.00 0.03 0.03 38 1005.1
20260505212529 25 104 1.6 11.3 0.00 0.03 0.03 38 1005.3
20260505212026 25 161 4.8 11.3 0.00 0.03 0.03 37 1005.1
20260505211523 25 147 3.2 11.3 0.00 0.03 0.03 37 1005.1
20260505211020 25 118 1.6 9.7 0.00 0.03 0.03 38 1005.2
20260505210516 25 219 4.8 11.3 0.00 0.03 0.03 38 1004.9
20260505210014 26 152 1.6 11.3 0.00 0.03 0.03 37 1005.0
20260505205512 26 319 3.2 9.7 0.00 0.03 0.03 37 1005.1
20260505205009 26 157 6.4 9.7 0.00 0.03 0.03 36 1005.1
20260505204506 27 109 4.8 9.7 0.00 0.03 0.03 36 1004.9
20260505204003 27 56 1.6 9.7 0.00 0.03 0.03 32 1005.0
20260505203459 27 359 8.0 16.1 0.00 0.03 0.03 30 1005.0
20260505202956 27 312 4.8 11.3 0.00 0.03 0.03 28 1004.9
20260505202453 26 199 4.8 11.3 0.00 0.03 0.03 30 1004.9
20260505201949 26 206 4.8 9.7 0.00 0.03 0.03 30 1004.9
20260505201446 26 306 11.3 20.9 0.00 0.03 0.03 29 1005.1
20260505200943 26 169 8.0 11.3 0.00 0.03 0.03 30 1005.1
20260505200441 27 343 4.8 14.5 0.00 0.03 0.03 29 1005.0
20260505195936 27 165 4.8 14.5 0.00 0.03 0.03 29 1005.4
20260505195434 26 181 4.8 17.7 0.00 0.03 0.03 30 1005.3
20260505194931 27 148 8.0 12.9 0.00 0.03 0.03 28 1005.6
20260505194429 27 227 4.8 16.1 0.00 0.03 0.03 31 1005.6
20260505193928 27 197 3.2 14.5 0.00 0.03 0.03 30 1005.6
20260505193426 26 102 8.0 12.9 0.00 0.03 0.03 30 1005.5
20260505192924 26 117 9.7 14.5 0.00 0.03 0.03 29 1005.6
20260505192422 27 73 3.2 14.5 0.00 0.03 0.03 27 1005.8
20260505191919 27 172 8.0 11.3 0.00 0.03 0.03 26 1005.8
20260505191418 27 240 4.8 16.1 0.00 0.03 0.03 26 1005.8
20260505190914 27 321 4.8 16.1 0.00 0.03 0.03 27 1005.6
20260505190410 27 199 4.8 17.7 0.00 0.03 0.03 28 1005.8
20260505185905 27 171 1.6 9.7 0.00 0.03 0.03 28 1005.8
20260505185403 27 269 3.2 12.9 0.00 0.03 0.03 31 1005.9
20260505184858 27 4 6.4 8.0 0.00 0.03 0.03 31 1006.0
20260505184355 27 188 4.8 9.7 0.00 0.03 0.03 31 1005.6
20260505183852 27 266 6.4 12.9 0.00 0.03 0.03 34 1005.9
20260505183349 27 239 3.2 17.7 0.00 0.03 0.03 31 1006.0
20260505182846 27 206 6.4 12.9 0.00 0.03 0.03 33 1006.1
20260505182343 26 294 3.2 4.8 0.00 0.03 0.03 34 1006.1
20260505181840 27 178 3.2 12.9 0.00 0.03 0.03 34 1006.3
20260505181337 27 190 1.6 4.8 0.00 0.03 0.03 36 1006.2
20260505180833 26 113 3.2 9.7 0.00 0.03 0.03 36 1006.5
20260505180330 27 306 3.2 8.0 0.00 0.03 0.03 38 1006.5
20260505175826 27 231 4.8 16.1 0.00 0.03 0.03 36 1006.5
20260505175323 26 135 3.2 11.3 0.00 0.03 0.03 36 1006.5
20260505174819 27 121 3.2 11.3 0.00 0.03 0.03 34 1006.9
20260505174317 26 352 8.0 12.9 0.00 0.03 0.03 37 1006.6
20260505173813 26 337 8.0 14.5 0.00 0.03 0.03 35 1006.7
20260505173309 26 86 11.3 20.9 0.00 0.03 0.03 37 1006.7
20260505172807 26 243 3.2 8.0 0.00 0.03 0.03 38 1006.7
20260505172306 26 253 9.7 12.9 0.00 0.03 0.03 39 1006.8
20260505171758 26 83 4.8 20.9 0.00 0.03 0.03 40 1006.7
20260505171255 26 298 8.0 12.9 0.00 0.03 0.03 39 1006.7
20260505170752 26 240 4.8 11.3 0.00 0.03 0.03 38 1006.8
20260505170249 26 274 3.2 8.0 0.00 0.03 0.03 41 1006.9
20260505165744 26 120 3.2 9.7 0.00 0.03 0.03 42 1006.9
20260505165240 26 147 4.8 8.0 0.00 0.03 0.03 42 1007.0
20260505164736 25 128 4.8 8.0 0.00 0.03 0.03 41 1006.9
20260505164233 25 355 1.6 4.8 0.00 0.03 0.03 45 1007.3
20260505163731 25 62 3.2 4.8 0.00 0.03 0.03 41 1007.4
20260505163230 25 166 4.8 11.3 0.00 0.03 0.03 42 1007.4
20260505162727 25 129 1.6 4.8 0.00 0.03 0.03 49 1007.5
20260505162224 25 60 4.8 9.7 0.00 0.03 0.03 43 1007.7
20260505161720 25 181 4.8 4.8 0.00 0.03 0.03 43 1007.6
20260505161218 24 138 1.6 11.3 0.00 0.03 0.03 45 1007.5
20260505160715 24 205 8.0 11.3 0.00 0.03 0.03 44 1007.6
20260505160213 23 320 6.4 12.9 0.00 0.03 0.03 48 1007.8
20260505153152 23 229 6.4 16.1 0.00 0.03 0.03 48 1007.8
20260505152649 22 187 3.2 4.8 0.00 0.03 0.03 51 1008.2
20260505152145 22 204 3.2 9.7 0.00 0.03 0.03 49 1008.2
20260505151640 22 65 4.8 9.7 0.00 0.03 0.03 49 1008.2
20260505151138 22 117 0.0 3.2 0.00 0.03 0.03 53 1008.1
20260505150633 22 178 4.8 4.8 0.00 0.03 0.03 51 1008.2
20260505150131 22 161 1.6 8.0 0.00 0.03 0.03 51 1008.2
20260505140559 19 198 1.6 9.7 0.00 0.03 0.03 61 1008.6
20260505125013 16 106 0.0 3.2 0.00 0.03 0.03 72 1008.4
20260505124509 16 145 0.0 3.2 0.00 0.03 0.03 74 1008.5
20260505124006 15 352 4.8 4.8 0.00 0.03 0.03 74 1008.4
20260505123503 15 110 0.0 3.2 0.00 0.03 0.03 75 1008.5
20260505122958 15 96 1.6 3.2 0.00 0.03 0.03 75 1008.4
20260505122456 15 108 0.0 1.6 0.00 0.03 0.03 76 1008.5
20260505121952 15 116 1.6 4.8 0.00 0.03 0.03 76 1008.4
20260505121449 15 171 1.6 1.6 0.00 0.03 0.03 77 1008.5
20260505120945 15 79 0.0 1.6 0.00 0.03 0.03 80 1008.5
20260505120442 14 99 1.6 3.2 0.00 0.03 0.03 80 1008.7
20260505115941 13 89 0.0 3.2 0.00 0.03 0.03 81 1008.7
20260505115438 13 100 0.0 3.2 0.00 0.03 0.03 81 1008.4
20260505114936 13 67 1.6 1.6 0.00 0.03 0.03 81 1008.3
20260505114431 13 112 0.0 1.6 0.00 0.03 0.03 82 1008.3
20260505113928 13 119 0.0 1.6 0.00 0.03 0.03 83 1008.2
20260505113425 12 133 0.0 1.6 0.00 0.03 0.03 82 1008.2
20260505112921 12 123 0.0 1.6 0.00 0.03 0.03 84 1008.0
20260505112419 12 112 0.0 0.0 0.00 0.03 0.03 85 1008.1
20260505111914 12 115 0.0 1.6 0.00 0.03 0.03 85 1008.1
20260505111409 12 115 0.0 1.6 0.00 0.03 0.03 87 1008.1
20260505110906 11 115 0.0 0.0 0.00 0.03 0.03 87 1008.1
20260505110403 11 115 0.0 1.6 0.00 0.03 0.03 88 1008.1
20260505101833 11 129 0.0 0.0 0.00 0.03 0.03 90 1007.5
20260505101328 11 128 0.0 0.0 0.00 0.03 0.03 89 1007.6
20260505100824 11 128 0.0 0.0 0.00 0.03 0.03 89 1007.4
20260505100321 11 128 0.0 1.6 0.00 0.03 0.03 89 1007.4
20260505095817 11 118 0.0 1.6 0.00 0.03 0.03 88 1007.5
20260505095315 11 119 0.0 1.6 0.00 0.03 0.03 87 1007.4
20260505094810 11 142 3.2 3.2 0.00 0.03 0.03 87 1007.6
20260505094307 12 126 1.6 3.2 0.13 0.03 0.03 84 1007.4
20260505093803 12 152 1.6 3.2 0.13 0.03 0.03 83 1007.5
20260505093301 12 99 1.6 4.8 0.00 0.00 0.00 78 1007.7